Acapulco, Mexico

2:25 AM CDT on September 21, 2017 (GMT -0500)
Gen Juan N Alvarez International

Weather History for MMAA - October, 2012

Change the Weather History Date:

Friday, October 19, 2012

  Actual Average Record
Temperature  
Mean Temperature 86 °F -  
Max Temperature 93 °F 86 °F 95 °F (2016)
Min Temperature 78 °F 75 °F 73 °F (1997)
Cooling Degree Days 20    
Growing Degree Days 36 (Base 50)    
Moisture  
Dew Point 77 °F    
Average Humidity 74    
Maximum Humidity 91    
Minimum Humidity 60    
Precipitation  
Precipitation 0.00 in - - ()
Sea Level Pressure  
Sea Level Pressure 29.79 in    
Wind  
Wind Speed 3 mph ()    
Max Wind Speed 12 mph    
Max Gust Speed -    
Visibility 7.7 miles    
Events      
Averages and records for this station are not official NWS values.
T = Trace of Precipitation, MM = Missing Value Source: Averaged Metar Reports

Daily Weather History Graph

Daily Weather History Graph

Search for Another Location

Airport or City:

Trip Planner

Search our weather history database for the weather conditions in past years. The results will help you decide how hot, cold, wet, or windy it might be!

Date:

Astronomy

Oct. 19, 2012 Rise Set
Actual Time 7:32 AM CDT 7:14 PM CDT
Civil Twilight 7:10 AM CDT 7:36 PM CDT
Nautical Twilight 6:45 AM CDT 8:01 PM CDT
Astronomical Twilight 6:20 AM CDT 8:27 PM CDT
Moon 11:48 AM CDT (10/19) 11:22 PM CDT (10/19)
Length of Visible Light 12h 25m
Length of Day
11h 41m
Waxing Crescent, 24% of the Moon is Illuminated
Oct 19
Waxing Crescent
Oct 21
First Quarter
Oct 29
Full
Nov 6
Last Quarter
Nov 13
New

Hourly Weather History & Observations

Time (CDT) Temp. Heat Index Dew Point Humidity Pressure Visibility Wind Dir Wind Speed Gust Speed Precip Events Conditions
12:45 AM 82.4 °F 89.5 °F 75.2 °F 79% 29.82 in 8.0 mi Calm Calm - N/A   Scattered Clouds
12:50 AM 82 °F - 79 °F 87% 29.83 in 6 mi SSE 2.2 mph - -   Scattered Clouds
1:45 AM 82.4 °F 89.5 °F 75.2 °F 79% 29.81 in 8.0 mi Calm Calm - N/A   Scattered Clouds
2:45 AM 82.4 °F 89.5 °F 75.2 °F 79% 29.78 in 8.0 mi Calm Calm - N/A   Scattered Clouds
3:45 AM 82.4 °F 89.5 °F 75.2 °F 79% 29.82 in 8.0 mi Calm Calm - N/A   Scattered Clouds
3:50 AM 81 °F - 78 °F 88% 29.78 in 6 mi South 2.2 mph - -   Clear
4:45 AM 80.6 °F 85.4 °F 73.4 °F 79% 29.76 in 8.0 mi Calm Calm - N/A   Scattered Clouds
5:45 AM 80.6 °F 85.4 °F 73.4 °F 79% 29.76 in 8.0 mi Calm Calm - N/A   Clear
6:45 AM 80.6 °F 85.4 °F 73.4 °F 79% 29.78 in 8.0 mi Calm Calm - N/A   Clear
6:50 AM 79 °F - 77 °F 91% 29.77 in 6 mi South 2.2 mph - -   Clear
7:46 AM 80.6 °F 86.2 °F 75.2 °F 84% 29.77 in 6.0 mi Calm Calm - N/A   Mostly Cloudy
8:45 AM 84.2 °F 92.3 °F 75.2 °F 74% 29.79 in 6.0 mi Calm Calm - N/A   Scattered Clouds
9:48 AM 84.2 °F 92.3 °F 75.2 °F 74% 29.80 in 8.0 mi Calm Calm - N/A   Clear
9:50 AM 84 °F - 79 °F 81% 29.83 in 12 mi NE 2.2 mph - -  
10:44 AM 87.8 °F 102.5 °F 78.8 °F 75% 29.83 in 7.0 mi Calm Calm - N/A   Clear
11:42 AM 91.4 °F 107.2 °F 78.8 °F 66% 29.83 in 7.0 mi WSW 5.8 mph - N/A   Clear
12:43 PM 91.4 °F 105.1 °F 77.0 °F 63% 29.82 in 7.0 mi WSW 9.2 mph - N/A   Clear
12:50 PM 90 °F - 78 °F 60% 29.81 in 12 mi SW 6.7 mph - -   Scattered Clouds
1:42 PM 91.4 °F 105.1 °F 77.0 °F 63% 29.80 in 7.0 mi WSW 11.5 mph - N/A   Clear
2:43 PM 91.4 °F 105.1 °F 77.0 °F 63% 29.78 in 7.0 mi WSW 9.2 mph - N/A   Clear
3:44 PM 91.4 °F 105.1 °F 77.0 °F 63% 29.77 in 7.0 mi SW 9.2 mph - N/A   Scattered Clouds
3:50 PM 90 °F - 80 °F 67% 29.76 in 12 mi West 6.7 mph - -   Partly Cloudy
4:44 PM 89.6 °F 104.7 °F 78.8 °F 70% 29.74 in 7.0 mi WSW 11.5 mph - N/A   Mostly Cloudy
5:44 PM 89.6 °F 102.2 °F 77.0 °F 66% 29.75 in 7.0 mi SW 9.2 mph - N/A   Mostly Cloudy
6:45 PM 87 °F - 78 °F 69% 29.77 in 12 mi West 8.9 mph - -   Mostly Cloudy
6:45 PM 87.8 °F 99.7 °F 77.0 °F 70% 29.75 in 7.0 mi WSW 9.2 mph - N/A   Mostly Cloudy
7:44 PM 86.0 °F 96.9 °F 77.0 °F 74% 29.78 in 7.0 mi SSW 9.2 mph - N/A   Mostly Cloudy
8:45 PM 86.0 °F 95.1 °F 75.2 °F 70% 29.81 in 7.0 mi West 5.8 mph - N/A   Mostly Cloudy
9:42 PM 84.2 °F 92.3 °F 75.2 °F 74% 29.85 in 7.0 mi Calm Calm - N/A   Mostly Cloudy
10:42 PM 84.2 °F 92.3 °F 75.2 °F 74% 29.84 in 7.0 mi Calm Calm - N/A   Overcast
11:42 PM 84.2 °F 92.3 °F 75.2 °F 74% 29.84 in 7.0 mi Calm Calm - N/A   Overcast